Regional Weather Roundup
Issued by NWS

Home | Current Version | Previous Version | Text Only | Print | Product List | Glossary On
Versions: 1 2 3 4 5 6 7 8 9 10 11 12 13 14 15 16 17 18 19 20 21 22 23 24 25 26 27 28 29 30 31 32 33 34 35 36 37 38 39 40 41 42 43 44 45 46 47 48 49 50
000
ASUS43 KTOP 251459
RWRKS

WEATHER ROUNDUP FOR KANSAS
NATIONAL WEATHER SERVICE GOODLAND KS
900 AM CST THU DEC 25 2014

NOTE:  "FAIR" INDICATES FEW OR NO CLOUDS BELOW 12,000 FEET WITH NO
SIGNIFICANT WEATHER AND/OR OBSTRUCTIONS TO VISIBILITY.

KSZ001>006-013>018-027>032-041>047-251600-
NORTHWEST KANSAS

CITY           SKY/WX    TMP DP  RH WIND       PRES   REMARKS
GOODLAND       PTCLDY    28  23  81 W6        29.40S
HAYS           PTCLDY    32  18  55 S15       29.49F WCI  22
HILL CITY      PTCLDY    31  20  63 SE6       29.47F
RUSSELL        PTCLDY    33  24  69 S23       29.49F WCI  21
$$

KSZ061>065-074>080-084>089-251600-
SOUTHWEST KANSAS

CITY           SKY/WX    TMP DP  RH WIND       PRES   REMARKS
DODGE CITY     MOCLDY    33  21  61 S16       29.50S WCI  23
ELKHART          N/A     41  19  41 SW13        N/A
GARDEN CITY    PTCLDY    27  22  81 S12       29.46S WCI  17
GREAT BEND     MOSUNNY   34  21  60 S18       29.54S WCI  23
LIBERAL        MOCLDY    36  21  55 S10       29.53R WCI  28
$$

KSZ066>073-081>083-090>101-251600-
SOUTHEAST KANSAS

CITY           SKY/WX    TMP DP  RH WIND       PRES   REMARKS
CHANUTE        SUNNY     38  29  70 S18       29.83S WCI  28
COFFEYVILLE    SUNNY     39  29  67 S23G33    29.85F WCI  28
HUTCHINSON     SUNNY     37  25  61 S21G29    29.62S WCI  26
NEWTON         SUNNY     39  23  52 S26       29.65S WCI  28
PARSONS        SUNNY     38  29  70 S13G20    29.85F WCI  30
WICHITA INTL   MOSUNNY   41  25  53 S20G32    29.66F
WICHITA JABRA  SUNNY     41  24  51 S25G36    29.66F
WINFIELD       SUNNY     42  26  53 S25G36    29.72F
$$

KSZ007>012-019>026-033>040-048>060-102>105-251600-
NORTHEAST KANSAS

CITY           SKY/WX    TMP DP  RH WIND       PRES   REMARKS
CONCORDIA      FAIR      35  26  69 S12       29.59R WCI  27
EMPORIA        MOSUNNY   33  27  78 S23       29.72S WCI  21
LAWRENCE       MOSUNNY   35  28  75 S13       29.78S WCI  26
MANHATTAN      MOSUNNY   40  26  57 S7        29.66F
OLATHE IND     MOSUNNY   34  28  79 S17       29.78F WCI  23
OLATHE EXE     SUNNY     35  28  75 S16G25    29.79F WCI  25
SALINA         SUNNY     38  26  62 S17G30    29.60S WCI  28
TOPEKA BILLARD SUNNY     38  27  64 S12       29.74F WCI  30
TOPEKA FORBES  SUNNY     37  27  67 S15       29.73S WCI  28
$$



USA.gov is the U.S. government's official web portal to all federal, state and local government web resources and services.